STARLINK-32856, 62819

Orbit data source: Space-Track

STARLINK-32856, 62819 is a payload satellite owned by SpaceX/Seattle (US) in LEO that was launched on Fri, 24 Jan 2025 UTC via an FALCON 9 launch vehicle from the Air Force Western Test Range (AFWTR). Payload-class satellites include a variety of spacecraft equipped with specific instruments for various scientific and technological missions. These include communications satellites like Starlink; space stations such as the ISS; scientific satellites like the Hubble; Earth observation satellites from companies like Planet Labs, Umbra, and HawkEye 360; GPS; miniature CubeSats for education and research; and military/defense satellites.

Loading next visibility...
Identifier
62819, 2025-018P
Orbit
LEO
Country
Flag of USUS
Related business
Manufacturer
SpaceX/Seattle
Mission
Operational Commercial Communications
Bus & Motor
STARLINK V2M, Unknown motor
Mass
730 kg wet, ~700 kg dry
Launch date (UTC)
2025-01-24 (2 years ago)
Launch vehicle
FALCON 9
Launch site
Air Force Western Test Range (AFWTR)
Object type
Payload
Rocket body
Debris
Shape & HBR
Box + 2 Pan, 17.7 m
Radar Cross Section
33.884 m², Large (>1 m²)

Expand to show TLE details & history
Last TLE update: 13 hours ago

TLE from 13 hours ago
0 STARLINK-32856
1 62819U 25018P   26265.09601636  .00009029  00000-0  27806-3 0  9990
2 62819  53.1582 114.1510 0001192  92.4983 267.6156 15.34398589 93294
Epoch: 2026-09-22T02:18Z
TLE epoch observation values (Epoch: 2026-09-22T02:18:15.813Z)
Latitude
-0.00002°
Longitude
78.61869°
Altitude
463.643 km
Speed
7.636 km/s
True Right ascension
07h 36m 36s
True Declination
0° 00' 00"
Sunlit
Object was in daylight at epoch
Visualization orbit readout
Latitude
Unknown
Longitude
Unknown
Altitude
Unknown
Speed
Unknown
Apparent Right ascension
Unknown
Apparent Declination
Unknown
Sunlit
N/A
Visualization observer readout
Local Sidereal Time
08:25:15
Azimuth
Unknown
Elevation
Unknown
Doppler factor
Unknown
Orbital elements
Apogee altitude
463.78 km
Perigee altitude
462.149 km
Semi-major axis
6,841.102 km
Eccentricity
0.00012
Inclination
53.1582°
RAAN
114.151°
Arg. of periapsis
92.4983°
True anomaly
267.60195°
Mean anomaly
267.6156°
Eccentric anomaly
267.60878°
Mean motion
3.83578 °/min
Orbital period
93.85 mins
BSTAR
0.00027806
Loading maneuver chart data...
Computing Atmospheric mass density...
Loading historical data...
Loading historical data...
Loading historical data...
Loading historical data...
Loading historical data...
Loading historical data...
Loading historical data...

Documentation

Showing up to 5 results
|